Wind_Speed
28 29 29 29 29 28 27 27 27 26 26 25 24 25 24 24 24 27 28 26 25 27 29 29 30 31 31 29 27 25 24 22 21 22 22 21 19 18 16 14 13 12
30 32 32 33 32 30 29 28 28 28 27 26 25 25 25 25 25 27 28 27 26 27 29 30 30 31 32 30 28 26 24 23 22 22 23 22 20 19 17 15 15 14
32 33 34 34 33 31 29 29 30 30 29 28 27 26 26 26 26 27 28 28 27 27 28 30 30 31 32 31 30 28 25 25 24 23 23 22 21 20 18 17 17 16
32 34 34 35 34 32 30 31 32 32 31 30 29 28 27 27 28 28 29 29 28 28 28 30 30 31 31 31 31 30 28 26 26 25 25 24 23 22 20 19 18 17
31 34 35 36 36 34 32 33 34 33 32 32 31 30 28 28 29 29 30 30 29 29 29 30 31 31 31 32 32 31 30 28 27 27 26 25 25 24 22 21 20 18
30 33 35 36 37 37 36 35 34 34 34 33 32 31 30 29 29 30 30 30 30 29 30 30 32 32 32 32 32 32 32 30 29 28 27 26 26 25 24 23 22 20
29 32 35 36 37 38 38 36 36 35 35 34 33 32 31 30 30 30 31 31 30 30 30 30 32 33 33 33 33 33 32 31 30 30 28 27 27 27 26 24 23 22
29 32 35 37 38 39 39 37 37 37 35 35 34 33 32 31 30 30 31 31 31 30 30 31 31 33 34 33 33 33 33 32 31 31 30 29 28 28 27 26 25 24
28 30 34 37 39 40 40 39 38 37 36 36 35 33 33 32 31 31 32 32 32 31 31 31 31 32 34 34 34 34 33 33 32 32 31 30 30 29 28 28 27 25
25 28 32 37 38 38 39 40 38 37 36 36 35 34 34 33 33 32 32 32 32 32 32 32 32 32 33 34 34 34 34 33 33 32 32 31 31 30 30 29 28 27
23 26 31 36 38 38 38 39 38 37 36 36 36 35 34 34 32 31 31 31 31 33 33 33 32 32 33 33 34 34 34 34 33 33 33 32 32 31 31 31 30 29
19 25 30 33 35 40 39 38 38 36 35 35 34 34 34 34 31 29 29 30 30 32 33 32 32 32 33 33 33 34 34 34 34 33 33 33 32 32 32 32 32 32
15 22 23 20 25 35 34 34 36 34 33 33 33 33 33 33 30 29 28 29 30 32 33 33 33 33 33 33 33 34 34 34 34 34 34 34 33 33 33 33 34 34
12 15 13 12 21 29 29 31 33 33 32 32 32 33 33 31 30 29 29 29 30 32 34 35 36 35 35 34 34 34 34 34 34 34 35 35 35 35 34 34 35 35
10 12 12 15 21 25 28 31 31 31 32 32 33 34 33 31 31 30 30 31 31 32 34 36 37 37 36 35 35 34 34 34 34 34 34 34 35 35 36 36 36 36
9 12 14 16 21 25 28 31 31 31 31 32 32 32 31 31 30 30 31 32 33 33 34 35 35 35 35 35 35 34 34 34 35 34 34 34 34 35 35 36 36 36
8 12 14 17 21 24 25 27 29 30 30 31 31 31 30 29 29 29 30 31 33 35 36 36 34 33 33 34 34 34 34 35 35 35 35 34 34 34 34 34 35 34
6 10 11 12 15 17 18 21 24 27 28 29 29 29 29 29 29 29 30 32 34 35 35 35 34 33 33 33 33 34 35 35 35 35 36 36 35 34 33 33 33 33
5 8 7 7 9 12 14 17 19 21 23 25 26 28 29 29 30 29 30 31 32 31 30 30 30 31 32 32 34 35 35 36 37 37 37 37 36 35 34 33 32 32
3 4 5 6 8 9 11 14 17 19 20 22 24 26 27 28 29 29 28 29 28 27 27 28 28 29 31 32 34 34 34 35 36 36 36 36 34 34 34 34 33 32
3 3 3 5 7 8 9 11 13 16 18 20 22 23 24 27 28 28 27 27 27 27 27 27 26 28 30 31 32 33 33 34 33 33 33 33 33 34 34 34 33 32
5 5 5 5 6 7 8 9 11 13 16 18 19 20 22 24 25 25 26 26 27 27 27 26 25 26 28 30 31 32 33 33 31 31 31 31 32 33 33 33 32 31
7 7 6 6 6 6 7 8 9 11 13 15 16 17 18 19 21 22 24 25 26 26 25 24 23 25 27 29 30 32 32 31 30 31 31 31 32 32 31 31 31 31
7 8 7 6 6 6 6 7 7 8 9 10 12 14 16 17 18 20 21 22 22 21 21 21 22 24 26 27 29 30 29 28 28 28 28 30 32 32 30 30 31 30
7 8 8 8 8 7 7 6 6 6 6 7 9 11 13 14 15 16 16 17 17 18 19 19 20 22 24 25 26 26 25 25 25 25 27 30 32 30 28 29 30 30
6 7 8 9 9 9 8 7 6 6 6 7 8 10 11 12 13 13 14 15 16 17 18 19 20 21 23 24 25 24 24 24 25 25 26 27 26 25 25 27 28 28
Wind_Direction
238 235 231 227 224 221 219 220 221 220 218 218 217 217 217 217 220 221 218 214 211 209 208 208 208 207 207 207 206 206 205 204 205 207 208 209 210 210 210 208 208 212
238 234 230 225 221 219 218 218 220 220 218 216 215 215 216 215 216 220 218 214 212 209 209 209 209 209 208 209 209 208 207 205 205 208 210 211 212 214 214 213 213 216
238 234 230 226 219 216 218 218 219 220 217 215 214 213 214 213 213 216 216 214 212 210 210 210 212 212 211 211 211 211 211 211 210 211 213 215 215 217 218 218 217 220
241 236 230 225 219 214 216 218 218 219 217 214 213 212 211 212 212 214 215 214 213 212 210 211 212 214 214 214 214 214 214 216 216 215 215 216 219 220 222 223 223 223
243 240 232 225 219 213 213 216 216 217 217 214 213 212 211 210 211 213 215 215 214 213 212 211 212 214 216 217 217 216 216 217 218 219 218 218 220 221 224 227 228 228
244 242 235 227 219 213 212 214 214 214 216 214 213 212 211 210 209 212 214 215 215 214 213 213 213 214 216 218 219 219 218 218 219 221 222 220 221 221 223 227 230 231
246 241 235 227 220 215 212 211 212 212 213 213 213 213 212 211 210 211 213 214 214 214 214 214 214 215 216 218 220 221 221 221 220 221 223 223 223 223 223 226 228 230
247 238 232 225 218 215 213 210 209 210 211 212 213 213 213 213 213 213 214 213 213 214 214 215 216 216 217 219 221 222 222 223 223 224 224 224 225 225 225 226 228 229
244 235 228 222 217 213 211 210 208 207 209 211 212 213 214 214 214 215 215 214 213 215 215 216 217 218 219 220 221 223 223 224 224 225 226 226 226 226 226 228 230 231
240 233 226 220 216 212 210 209 206 205 207 209 212 213 214 215 215 216 218 216 214 215 217 218 218 219 220 222 222 224 225 225 224 225 226 227 227 227 228 230 233 235
240 234 226 222 217 209 208 207 203 203 206 209 212 214 216 217 217 218 223 223 219 217 219 220 220 220 222 223 224 225 227 227 227 226 227 228 228 228 228 231 234 237
245 235 232 233 218 202 202 205 201 201 206 210 213 216 218 220 218 219 224 227 226 224 223 223 223 223 223 224 225 226 227 228 228 228 228 228 229 229 229 231 234 236
246 236 237 237 207 193 197 204 201 200 204 209 214 218 220 221 220 221 225 228 229 228 226 226 226 226 226 225 226 227 228 229 229 229 229 229 230 230 229 230 233 236
235 231 223 198 186 191 200 205 203 201 203 208 213 217 220 221 221 222 225 228 230 229 227 227 227 227 227 227 227 229 229 230 230 230 230 231 231 231 231 231 233 236
215 212 203 193 195 200 204 207 208 206 206 209 213 217 219 218 219 222 224 226 229 228 227 226 226 227 228 229 229 230 232 232 232 232 232 232 232 232 233 233 234 237
192 194 199 204 211 211 208 209 212 211 211 213 216 220 221 219 219 222 224 225 227 228 227 226 227 228 228 229 230 231 233 234 234 234 234 234 234 234 234 235 236 238
184 191 200 204 211 216 213 211 214 216 216 217 219 224 226 226 225 224 224 225 227 228 227 226 226 227 228 229 230 232 234 235 235 234 234 235 235 235 235 236 237 239
200 201 211 211 209 214 215 218 221 222 221 221 223 226 229 231 232 229 226 228 229 230 229 228 227 226 226 227 230 232 235 237 237 236 235 234 235 236 237 237 238 239
219 210 218 217 207 206 211 219 224 225 226 227 228 231 233 236 237 235 233 234 235 234 234 235 234 231 229 228 230 233 235 237 238 238 237 236 235 235 237 238 238 240
235 218 212 216 218 213 211 215 219 221 224 228 231 234 237 239 241 239 237 239 241 239 238 237 235 233 232 230 230 233 236 237 238 238 238 239 239 239 238 238 239 240
249 241 223 226 232 229 224 222 221 220 222 227 229 229 231 234 237 238 237 238 240 240 240 238 233 230 230 229 230 232 234 236 237 237 238 239 240 240 240 239 239 240
258 254 249 245 243 234 225 222 221 221 224 228 228 227 228 231 235 238 239 238 236 236 238 236 230 227 227 228 230 232 234 235 236 238 239 239 239 240 239 239 239 240
261 261 258 255 250 238 224 219 219 221 224 227 228 228 229 230 233 236 237 236 233 233 233 231 227 226 227 229 230 233 235 236 236 237 239 239 240 239 238 237 238 239
250 254 251 245 241 239 230 221 218 221 224 224 224 225 224 225 227 229 232 234 232 230 229 227 226 227 228 230 232 234 236 237 238 238 238 239 238 237 235 236 237 238
242 245 241 233 230 233 233 227 222 225 230 229 229 229 228 227 228 230 232 235 234 231 230 228 228 229 230 232 235 237 238 239 240 239 238 237 236 235 235 236 237 238
240 242 239 234 231 233 236 236 232 230 233 236 239 238 234 231 230 230 231 232 233 232 232 231 229 230 232 233 236 238 240 242 243 242 239 239 241 241 241 240 241 242
Height
3161 3162 3163 3165 3167 3170 3172 3175 3177 3179 3181 3183 3185 3187 3190 3192 3194 3196 3197 3199 3201 3204 3206 3208 3210 3212 3214 3216 3218 3220 3222 3223 3224 3226 3228 3229 3230 3231 3232 3233 3234 3235
3156 3157 3158 3159 3162 3166 3169 3171 3174 3176 3178 3181 3183 3185 3187 3189 3191 3193 3196 3198 3199 3202 3204 3206 3209 3211 3212 3215 3216 3218 3220 3222 3223 3225 3226 3228 3229 3230 3231 3232 3233 3234
3151 3152 3154 3155 3157 3162 3165 3168 3171 3173 3176 3178 3180 3182 3184 3187 3189 3191 3193 3195 3197 3199 3202 3204 3206 3208 3210 3213 3214 3216 3218 3220 3222 3223 3225 3226 3228 3229 3230 3231 3231 3233
3147 3148 3150 3152 3154 3157 3160 3163 3167 3170 3172 3175 3177 3180 3182 3184 3186 3188 3191 3193 3195 3197 3199 3201 3204 3206 3208 3210 3212 3214 3216 3218 3220 3221 3223 3224 3226 3227 3229 3229 3230 3231
3142 3143 3146 3148 3151 3153 3155 3158 3162 3166 3169 3172 3174 3177 3179 3181 3184 3186 3188 3190 3192 3194 3196 3199 3201 3203 3206 3208 3210 3212 3214 3216 3218 3219 3221 3223 3224 3226 3227 3228 3229 3230
3139 3139 3142 3144 3147 3149 3150 3154 3158 3162 3166 3169 3171 3174 3176 3178 3181 3183 3186 3188 3190 3192 3194 3196 3198 3201 3203 3205 3207 3209 3211 3214 3215 3217 3219 3220 3222 3224 3225 3226 3227 3228
3135 3136 3138 3141 3143 3145 3147 3151 3155 3159 3162 3166 3168 3171 3173 3176 3178 3181 3183 3185 3188 3190 3192 3194 3196 3198 3201 3203 3205 3207 3209 3211 3213 3214 3216 3218 3220 3221 3223 3224 3225 3226
3130 3131 3133 3136 3139 3142 3145 3148 3152 3155 3159 3162 3165 3168 3171 3173 3176 3179 3181 3183 3185 3187 3189 3191 3193 3195 3198 3200 3202 3204 3206 3208 3210 3212 3214 3215 3217 3219 3220 3222 3223 3224
3126 3127 3129 3132 3135 3138 3142 3145 3149 3152 3156 3159 3163 3165 3168 3171 3173 3176 3178 3180 3182 3184 3186 3188 3190 3193 3195 3197 3199 3202 3203 3205 3207 3209 3211 3213 3214 3216 3218 3219 3221 3222
3123 3124 3126 3128 3132 3135 3138 3143 3146 3149 3153 3156 3160 3162 3165 3167 3170 3173 3175 3177 3179 3181 3183 3186 3188 3190 3192 3194 3196 3199 3200 3203 3204 3206 3208 3210 3211 3213 3215 3216 3218 3219
3122 3122 3123 3125 3129 3132 3136 3140 3143 3146 3150 3154 3157 3160 3162 3164 3168 3171 3174 3176 3178 3179 3181 3183 3185 3187 3189 3191 3193 3196 3198 3200 3202 3203 3205 3207 3209 3210 3212 3213 3215 3216
3120 3119 3120 3121 3123 3128 3133 3137 3140 3144 3148 3151 3154 3157 3159 3161 3166 3169 3171 3174 3176 3177 3178 3180 3182 3184 3186 3188 3190 3192 3194 3196 3198 3200 3202 3204 3205 3207 3209 3210 3212 3213
3118 3118 3119 3118 3120 3127 3132 3136 3138 3142 3145 3148 3152 3154 3156 3159 3163 3166 3168 3171 3172 3174 3176 3177 3179 3181 3183 3185 3187 3189 3191 3193 3195 3197 3199 3200 3202 3204 3205 3207 3208 3210
3118 3119 3119 3119 3122 3127 3131 3134 3137 3140 3142 3145 3148 3150 3152 3156 3160 3163 3165 3167 3168 3170 3172 3174 3175 3177 3179 3181 3184 3186 3188 3190 3191 3193 3195 3197 3199 3200 3202 3203 3205 3206
3120 3120 3121 3122 3124 3127 3129 3133 3136 3139 3141 3143 3145 3147 3149 3153 3157 3160 3162 3163 3165 3167 3169 3170 3171 3173 3175 3178 3180 3182 3184 3186 3188 3190 3191 3193 3195 3196 3198 3199 3201 3202
3121 3122 3123 3125 3126 3127 3128 3132 3135 3137 3140 3142 3144 3146 3148 3150 3154 3157 3159 3160 3162 3163 3165 3166 3168 3170 3172 3175 3177 3179 3181 3183 3185 3186 3188 3189 3191 3193 3194 3196 3197 3199
3123 3123 3123 3124 3126 3127 3129 3132 3135 3137 3139 3141 3143 3145 3147 3148 3152 3155 3157 3158 3159 3160 3161 3162 3164 3167 3169 3172 3174 3176 3178 3179 3181 3182 3184 3186 3187 3189 3190 3192 3194 3195
3124 3125 3125 3125 3127 3129 3132 3135 3137 3138 3139 3140 3142 3144 3145 3146 3148 3152 3155 3156 3156 3157 3159 3160 3161 3162 3165 3168 3170 3173 3174 3176 3177 3179 3180 3181 3183 3185 3187 3188 3190 3191
3125 3126 3127 3127 3129 3131 3133 3135 3136 3137 3138 3140 3141 3142 3143 3144 3146 3148 3151 3153 3154 3157 3158 3159 3159 3160 3162 3164 3167 3169 3171 3172 3173 3174 3175 3177 3179 3181 3183 3185 3186 3187
3125 3126 3127 3127 3128 3129 3131 3133 3134 3135 3136 3138 3139 3140 3142 3143 3144 3146 3148 3150 3152 3154 3155 3155 3157 3158 3160 3162 3164 3166 3167 3168 3169 3171 3173 3175 3177 3178 3180 3181 3183 3184
3125 3125 3126 3126 3127 3128 3129 3131 3131 3132 3133 3135 3136 3138 3140 3141 3141 3142 3144 3146 3148 3150 3151 3152 3153 3155 3157 3159 3161 3162 3163 3164 3166 3168 3170 3172 3174 3175 3176 3178 3179 3180
3124 3125 3126 3126 3126 3127 3128 3129 3130 3131 3132 3133 3134 3136 3137 3138 3139 3139 3141 3143 3145 3147 3148 3149 3151 3153 3154 3156 3157 3159 3159 3161 3164 3165 3167 3169 3170 3171 3173 3175 3176 3177
3124 3125 3125 3126 3126 3126 3127 3128 3129 3129 3130 3131 3132 3133 3135 3136 3137 3137 3139 3141 3143 3144 3145 3147 3149 3150 3151 3153 3154 3155 3156 3159 3161 3163 3164 3165 3167 3168 3169 3171 3172 3173
3124 3124 3125 3125 3125 3126 3126 3127 3128 3129 3129 3130 3131 3132 3132 3133 3135 3136 3137 3138 3140 3142 3143 3145 3146 3147 3149 3150 3151 3152 3154 3156 3158 3160 3162 3162 3162 3164 3165 3167 3169 3170
3123 3123 3124 3124 3125 3125 3126 3126 3127 3128 3128 3129 3129 3130 3131 3132 3133 3134 3135 3136 3138 3139 3141 3142 3144 3145 3147 3148 3148 3149 3151 3153 3154 3156 3158 3158 3159 3160 3161 3163 3165 3166
3123 3123 3123 3123 3124 3124 3125 3125 3126 3126 3127 3127 3128 3129 3129 3130 3131 3132 3133 3135 3136 3137 3139 3140 3142 3143 3144 3145 3146 3147 3149 3150 3151 3152 3154 3156 3158 3159 3160 3161 3162 3163